Regional Weather Roundup
Issued by NWS

Home | Current Version | Previous Version | Graphics & Text | Print | Product List | Glossary On
Versions: 1 2 3 4 5 6 7 8 9 10 11 12 13 14 15 16 17 18 19 20 21 22 23 24 25 26 27 28 29 30 31 32 33 34 35 36 37 38 39 40 41 42 43 44 45 46 47 48 49 50
000
ASUS43 KLOT 081003
RWRIL

ILLINOIS REGIONAL WEATHER ROUNDUP
NATIONAL WEATHER SERVICE CHICAGO/ROMEOVILLE IL
400 AM CST THU DEC 08 2016

NOTE: "FAIR" INDICATES FEW OR NO CLOUDS BELOW 12,000 FEET WITH NO
SIGNIFICANT WEATHER AND/OR OBSTRUCTIONS TO VISIBILITY.

* THESE STATIONS ARE NOT UNDER NWS QUALITY CONTROL. THEY ALSO MAY NOT
  REPORT WEATHER SUCH AS PRECIPITATION OR FOG.

ILZ001-002-007-009-015-016-024-081100-
NORTHWEST ILLINOIS

CITY           SKY/WX    TMP DP  RH WIND       PRES   REMARKS
MOLINE         CLOUDY    20   9  62 W17G24    30.28S WCI   5
STERLING*      PTCLDY    17  11  77 W22G32    30.23S WCI   0
$$

ILZ003-004-008-010-011-017-018-081100-
NORTH CENTRAL ILLINOIS

CITY           SKY/WX    TMP DP  RH WIND       PRES   REMARKS
ROCKFORD       FLURRIES  20  12  71 W14G25    30.19R WCI   7
FREEPORT*      FLURRIES  17  10  73 W23       30.20S WCI   0
ROCHELLE*      FLURRIES  19  13  76 W17       30.20S WCI   4
$$

ILZ005-006-012>014-019>023-081100-
NORTHEAST ILLINOIS

CITY           SKY/WX    TMP DP  RH WIND       PRES   REMARKS
CHICAGO-OHARE  FLURRIES  22  12  65 W20G29    30.15S WCI   7
CHICAGO-MIDWAY FLURRIES  23  12  62 W14       30.17S WCI  11
AURORA         FLURRIES  22  15  75 W18       30.19R WCI   7
LANSING*       CLOUDY    22  16  78 W17G28    30.18S WCI   8
WAUKEGAN       CLOUDY    22  13  68 W10G22    30.11S WCI  11
DUPAGE AIRPORT CLOUDY    21  11  65 W20G28    30.16S WCI   6
KANKAKEE*      MIX PCPN  22  15  74 W18G24    30.22S WCI   7
WHEELING       CLOUDY    22  12  65 W16G24    30.16R WCI   8
NORTHERLY ISL    N/A     23  13  65 W10         N/A  WCI  13
$$

LMZ740>746-081100-
SOUTHERN LAKE MICHIGAN

STATION/POSITION SKY/WX   TEMP    WIND        PRES    VSBY  WAVE
                          AIR SEA DIR/SP/G                  HT/PER
                          (F)     (DEG/KT/KT) (MB)    (MI)  (FT/S)
HARRISON CRIB              24     260/ 22/ 26   N/A
BURNHAM HARBOR             24     280/ 10/ 19   N/A
CALUMET HARBOR             23     260/  8/ 15 1020.8F
BURNS HARBOR               26     260/ 24/ 29 1021.3F
MICHIGAN CITY              25     230/ 25/ 31   N/A
$$

ILZ025>027-034>036-040-047-049-050-058-095>099-081100-
WEST-CENTRAL ILLINOIS

CITY           SKY/WX    TMP DP  RH WIND       PRES   REMARKS
QUINCY         CLEAR     18  10  71 W16       30.37R WCI   3
GALESBURG*     FLURRIES  18  12  76 W16G23    30.30R WCI   4
MACOMB*        PTCLDY    18  12  77 W23       30.35S WCI   1
JACKSONVILLE*  CLEAR     19  12  73 W13       30.35S WCI   7
$$

ILZ028>032-037-038-041>044-048-051>054-059>061-081100-
CENTRAL ILLINOIS

CITY           SKY/WX    TMP DP  RH WIND       PRES   REMARKS
BLOOMINGTON    CLEAR     18  12  77 W17G24    30.26  WCI   3
DECATUR        CLEAR     21  12  68 W16       30.30S WCI   7
PEORIA         MOCLDY    19  11  70 W17G24    30.30S WCI   4
SPRINGFIELD    CLEAR     21  13  71 W13       30.34S WCI   9
TAYLORVILLE    NOT AVBL
$$

ILZ033-039-045-046-055>057-062-063-081100-
EAST-CENTRAL ILLINOIS

CITY           SKY/WX    TMP DP  RH WIND       PRES   REMARKS
CHAMPAIGN      CLEAR     21  13  71 W20G25    30.27S WCI   6
MATTOON        CLEAR     21  12  68 W15       30.29F WCI   8
PARIS*         CLEAR     21  16  79 W13G18    30.29S WCI   9
$$

ILZ079-100>102-081100-
SOUTHWEST ILLINOIS

CITY           SKY/WX    TMP DP  RH WIND       PRES   REMARKS
BELLEVILLE     PTCLDY    23  12  62 NW10      30.38F WCI  12
CAHOKIA*       PTCLDY    25  10  53 W8        30.41S WCI  16
SPARTA*        PTCLDY    24  13  62 NW8       30.41R WCI  15
$$

ILZ064>066-069>071-074>076-080>082-084>086-088>090-092>094-081100-
SOUTH-CENTRAL ILLINOIS

CITY           SKY/WX    TMP DP  RH WIND       PRES   REMARKS
CARBONDALE     CLEAR     26  17  68 NW14G22   30.40R WCI  14
CAIRO*         CLOUDY    30  22  70 NW12      30.39R WCI  21
MARION           N/A     28  19  69 NW8       30.40R WCI  20
CENTRALIA*     CLEAR     25  17  71 W10       30.36S WCI  15
SALEM*         PTCLDY    26  13  59 NW14      30.36S WCI  14
$$

ILZ067-068-072-073-078-083-087-091-081100-
SOUTHEAST ILLINOIS

CITY           SKY/WX    TMP DP  RH WIND       PRES   REMARKS
LAWRENCEVILLE  CLEAR     26  17  68 NW15      30.32S WCI  14
HARRISBURG*    PTCLDY    29  19  68 NW13G22   30.37R WCI  18
ROBINSON*      CLOUDY    26  18  71 NW13      30.32S WCI  15
CARMI*         CLEAR     29  21  72 NW15      30.35R WCI  17
$$

ABBREVIATIONS USED IN REMARKS
   TC - TEMPERATURE IN CELSIUS
  WCI - WIND CHILL INDEX
   HX - HEAT INDEX
  VSB - VISIBILITY
$$




USA.gov is the U.S. government's official web portal to all federal, state and local government web resources and services.